map of YPY home
YPY - Airport
Location
City:  Fort Chipewyan, Alberta, Canada
Name:Fort Chipewyan Airport
ICAO:CYPY
IATA:YPY

Details
Type:Airport (Airfield)
Use:Public/Civil
Latitude:5846'03"N (58.767500)
Longitude:11107'03"W (-111.117499)
Elevation:761 ft (232 m)
Variation:14.06E (WMM2015v2 magnetic declination)
-0.11 annual change
Runways:1
Longest:5000 ft (1524 m), paved

Time
Time Zone:UTC-7 (DST-6)
Local Time:

Weather
METAR:CYPY 041400Z AUTO 09005KT 9SM CLR M38/M42 A3044 RMK SLP354
TAF:CYPY 041238Z 0413/0501 VRB03KT P6SM SKC
RMK FCST BASED ON AUTO OBS. NXT FCST BY 041800Z

Related Locations
Nearby:
Farthest:YWKS: 11007 mi / 17715 km
Wilkins Runway (Casey), Upper Peterson Glacier, AQ

Find:

   beyond  
but within

Other Information
Maps:
NOTAMs:
Links:
Sources:

  
  • flag of Canada
  • flag of Alberta
  

Airport Diagram

Airport diagram for YPY

Airport diagram PDF

Sectional Chart

Flight Planning
at skyvector.com

Satellite Image

Google Maps Satellite view

 

Copyright © 2004-2019 Karl L. Swartz. All rights reserved.
The Great Circle Mapper name and logo are trademarks of the Great Circle Mapper.
All other trademarks mentioned herein belong to their respective owners.
Please see credits for attibutions and further copyright information.

  Follow gcmap on Facebook Follow gcmap on Twitter GCmap on LinkedIn

hCard Microformat

Geo Microformat